Regional Weather Roundup
Issued by NWS Northern Indiana

Home | Current Version | Previous Version | Text Only | Print | Product List | Glossary On
Versions: 1 2 3 4 5 6 7 8 9 10 11 12 13 14 15 16 17 18 19 20 21 22 23 24 25 26 27 28 29 30 31 32 33 34 35 36 37 38 39 40 41 42 43 44 45 46 47 48 49 50
000
ASUS43 KIWX 181110
RWRIWX

KIWX WEATHER ROUNDUP
NATIONAL WEATHER SERVICE NORTHERN INDIANA
700 AM EDT THU SEP 18 2014

NOTE: "FAIR" INDICATES FEW OR NO CLOUDS BELOW 12,000 FEET WITH NO
SIGNIFICANT WEATHER AND/OR OBSTRUCTIONS TO VISIBILITY.

* THESE STATIONS ARE NOT UNDER NWS QUALITY CONTROL. THEY ALSO MAY NOT
  REPORT WEATHER SUCH AS PRECIPITATION OR FOG.

INZ001>027-181200-
NORTHERN INDIANA

CITY           SKY/WX    TMP DP  RH WIND       PRES   REMARKS
GARY*          CLEAR     45  45 100 CALM      30.08R FOG
VALPARAISO     CLEAR     44  43  96 CALM      30.08R FOG
MICHIGAN CITY* CLEAR     43  43 100 CALM      30.08S
LAPORTE*       CLEAR     42  42 100 CALM      30.08S
KNOX*          CLEAR     42  40  95 CALM      30.07R
SOUTH BEND     CLEAR     43  40  89 N3        30.09R
ELKHART*       MOCLDY    43  41  93 CALM      30.09
GOSHEN         FOG       42  40  92 CALM      30.08S VSB 1
MONTICELLO*    CLEAR     45  44  99 CALM      30.05S
LOGANSPORT*    CLEAR     45  41  87 CALM      30.07R
ROCHESTER*     CLEAR     45  45 100 CALM      30.07S FOG
WARSAW*        CLEAR     41  41 100 CALM      30.07S FOG
ANGOLA*        CLEAR     45  43  93 CALM      30.08S
FORT WAYNE     CLEAR     45  43  93 N3        30.08R
HUNTINGTON*    CLEAR     42  42  99 CALM      30.06R FOG
PERU/GRISSOM   CLEAR     46  46 100 CALM      30.06R
MARION*        FOG       41  40  97 CALM      30.06S VSB 1/2

$$
INZ028>050-181200-
CENTRAL INDIANA

CITY           SKY/WX    TMP DP  RH WIND       PRES   REMARKS
LAFAYETTE      CLEAR     46  46 100 NE3       30.06R FOG
KOKOMO*          N/A     43  39  87 CALM      30.06S VSB 3/4
MUNCIE*        MOCLDY    44  41  89 CALM      30.05S FOG
INDIANAPOLIS   CLEAR     51  48  89 NE6       30.04R

$$
MIZ043>046-050>051-056>058-064>065-071>073-077>080-181200-
SOUTHWEST LOWER MICHIGAN

CITY           SKY/WX    TMP DP  RH WIND       PRES   REMARKS
BATTLE CREEK   CLEAR     44  42  93 CALM      30.10R
BENTON HARBOR  CLEAR     40  39  97 CALM      30.08R
COLDWATER*     FOG       42  41  97 MISG      30.09R VSB 1
HILLSDALE*     CLEAR     42  42 100 CALM      30.08R
HOLLAND        CLOUDY    48  45  89 CALM      30.10R
GRAND RAPIDS   PTCLDY    44  41  89 CALM      30.10R
KALAMAZOO      CLEAR     43  40  89 CALM      30.10R FOG
STURGIS*       CLEAR     45  45 100 CALM      30.09R FOG
THREE RIVERS*  FAIR      42  40  94 CALM      30.10R

$$
OHZ001>008-015>018-024>025-181200-
NORTHWEST OHIO

CITY           SKY/WX    TMP DP  RH WIND       PRES   REMARKS
WAUSEON*       FAIR      43  43 100 CALM      30.08R
DEFIANCE       CLEAR     45  41  86 CALM      30.08R
FINDLAY        CLEAR     46  44  93 CALM      30.06R FOG
TOLEDO EXPRESS CLEAR     44  42  93 CALM      30.07R
TOLEDO METCALF CLEAR     47  43  86 NW5       30.08R
LIMA           CLEAR     46  44  93 CALM      30.06R FOG

$$
&&



USA.gov is the U.S. government's official web portal to all federal, state and local government web resources and services.